Location: Newark
(48.1500°N, 13.1167°E)
Time: 12:25:07
(UTC+00:00)

KAITUO 1B - Pass Details

Date: 28 November 2021
Orbit: 486 x 507 km, 97.4° (Epoch: 28 January)

Event Time Altitude Azimuth Distance (km) Brightness Sun altitude
Rises 15:57:28 0° 140° (SE) 2,586 ? -6.7°
Reaches altitude 10° 15:59:42 10° 129° (SE) 1,712 ? -7.0°
Maximum altitude 16:02:56 29° 68° (ENE) 946 ? -7.5°
Drops below altitude 10° 16:06:12 10° 7° (N) 1,736 ? -8.0°
Sets 16:08:29 0° 357° (N) 2,630 ? -8.3°
